Weather in Talgar Şehri

Kazakhstan     43°18′10″N   77°14′22″E
temp.,
°C
wind,
m/s
gust,
m/s
humid.,
%
clouds,
%
prec.,
mm/h
press.,
hPa
HPBL,
m
23 april, fri
fri2300:00−6s436916 0.1 103924
03:00−6s43600 0.0 103824
06:00−7s32580 0.0 103819
09:00−3nw22632 0.0 1036436
12:00−1nw436932 0.0 1034797
15:00+1nnw436247 0.0 1033934
18:00−1nnw325826 0.1 1034557
21:00−5sse22620 0.0 103725
24 april, sat
sat2400:00−5s225764 0.0 103629
03:00−5ssw215696 0.0 103520
06:00−5s324860 0.0 103216
09:000nw32401 0.0 1029289
12:00+3nnw324466 0.0 1027538
15:00+5nnw3246100 0.0 1025569
18:00+4n1253100 0.0 1025192
21:00+2s2257100 0.0 102618
25 april, sun
sun2500:00+3s3248100 0.0 102519
03:00+3s3243100 0.0 102522
06:00+2s435098 0.1 102630
09:00+8w3344100 0.0 1024444
12:00+10nw3444100 0.0 1024902
15:00+11nw334657 0.0 1023913
18:00+9nw1156100 0.1 1024160
21:00+7s3360100 0.0 102626
26 april, mon
mon2600:00+7s3256100 0.1 102626
03:00+6s325681 0.1 102517
06:00+4s4356100 0.1 102725
09:00+9nw214875 0.0 1025369
12:00+11nnw3351100 0.0 1025989
15:00+13nnw33474 0.1 10241087
18:00+11n225115 0.1 1025434
21:00+7sse43540 0.0 102631
27 april, tue
tue2700:00+7sse433617 0.0 102525
03:00+7sse433149 0.0 102425
06:00+7sse432954 0.0 102324
09:00+13nw11327 0.0 1021229
12:00+16n323914 0.0 1019692
15:00+17n22421 0.0 1018659
18:00+16nne12490 0.0 1018192
21:00+12sse54400 0.0 102034